| time (UTC) | temp F | wind direction | speed knots | gust knots | rain 1hr in | rain 24hr in | rain mn in | humidity % | barometer mb |
| 20260905174504 | 58 | 266 | 3.5 | 10.4 | 0.06 | 0.10 | 0.09 | 84 | 1004.3 |
| 20260905173005 | 59 | 284 | 6.1 | 12.2 | 0.05 | 0.09 | 0.09 | 83 | 1004.3 |
| 20260905170004 | 62 | 287 | 6.1 | 10.4 | 0.01 | 0.09 | 0.05 | 79 | 1003.9 |
| 20260905163004 | 63 | 284 | 7.8 | 10.4 | 0.00 | 0.12 | 0.04 | 74 | 1002.9 |
| 20260905160005 | 64 | 286 | 5.2 | 10.4 | 0.00 | 0.14 | 0.04 | 75 | 1002.5 |
| 20260905151504 | 65 | 285 | 6.1 | 13.9 | 0.00 | 0.17 | 0.04 | 70 | 1002.1 |
| 20260905150004 | 64 | 274 | 6.1 | 13.0 | 0.00 | 0.20 | 0.04 | 73 | 1002.1 |
| 20260905144504 | 64 | 289 | 6.1 | 11.3 | 0.00 | 0.20 | 0.04 | 75 | 1002.1 |
| 20260905143004 | 64 | 283 | 5.2 | 13.0 | 0.00 | 0.22 | 0.04 | 72 | 1002.1 |
| 20260905141504 | 65 | 284 | 8.7 | 14.8 | 0.00 | 0.24 | 0.04 | 75 | 1001.9 |
| 20260905140005 | 66 | 285 | 5.2 | 11.3 | 0.00 | 0.24 | 0.04 | 71 | 1001.9 |
| 20260905134504 | 66 | 289 | 2.6 | 10.4 | 0.00 | 0.25 | 0.04 | 72 | 1001.7 |
| 20260905131503 | 66 | 272 | 5.2 | 12.2 | 0.00 | 0.27 | 0.04 | 73 | 1001.5 |
| 20260905130004 | 65 | 286 | 6.1 | 13.9 | 0.00 | 0.28 | 0.04 | 72 | 1001.5 |
| 20260905123004 | 66 | 281 | 7.8 | 13.9 | 0.00 | 0.29 | 0.04 | 69 | 1001.4 |
| 20260905120004 | 66 | 255 | 4.3 | 12.2 | 0.00 | 0.29 | 0.04 | 74 | 1001.2 |
| 20260905113005 | 64 | 278 | 5.2 | 10.4 | 0.03 | 0.29 | 0.04 | 76 | 1001.3 |
| 20260905100004 | 62 | 256 | 4.3 | 10.4 | 0.00 | 0.26 | 0.01 | 81 | 1000.5 |
| 20260905084504 | 62 | 277 | 5.2 | 11.3 | 0.00 | 0.26 | 0.01 | 82 | 999.8 |
| 20260905080006 | 61 | 276 | 7.0 | 11.3 | 0.00 | 0.26 | 0.01 | 83 | 999.2 |
| 20260905070005 | 59 | 260 | 4.3 | 10.4 | 0.00 | 0.26 | 0.01 | 87 | 999.0 |
| 20260905060004 | 58 | 273 | 2.6 | 10.4 | 0.00 | 0.26 | 0.01 | 89 | 998.2 |
| 20260905054504 | 58 | 280 | 6.1 | 11.3 | 0.00 | 0.26 | 0.01 | 89 | 998.0 |
| 20260905051504 | 58 | 260 | 2.6 | 8.7 | 0.00 | 0.26 | 0.01 | 90 | 998.0 |
| 20260905043005 | 57 | 265 | 2.6 | 10.4 | 0.00 | 0.26 | 0.01 | 91 | 997.4 |
| 20260905041505 | 57 | 274 | 2.6 | 7.8 | 0.00 | 0.26 | 0.01 | 91 | 997.0 |
| 20260905033005 | 57 | 264 | 2.6 | 7.8 | 0.00 | 0.26 | 0.01 | 91 | 996.4 |
| 20260905030005 | 57 | 275 | 1.7 | 7.0 | 0.00 | 0.26 | 0.01 | 91 | 996.0 |
| 20260905023005 | 57 | 271 | 2.6 | 10.4 | 0.00 | 0.26 | 0.01 | 89 | 996.0 |
| 20260905021505 | 57 | 251 | 2.6 | 8.7 | 0.01 | 0.26 | 0.01 | 89 | 996.0 |
| 20260905020005 | 57 | 251 | 3.5 | 8.7 | 0.01 | 0.26 | 0.01 | 89 | 996.0 |
| 20260905014504 | 58 | 272 | 2.6 | 10.4 | 0.01 | 0.27 | 0.01 | 90 | 996.0 |
| 20260905010004 | 58 | 248 | 2.6 | 7.8 | 0.00 | 0.28 | 0.00 | 90 | 995.9 |
| 20260905003003 | 58 | 271 | 3.5 | 10.4 | 0.00 | 0.28 | 0.00 | 91 | 995.9 |
| 20260905001503 | 58 | 251 | 2.6 | 10.4 | 0.00 | 0.28 | 0.00 | 91 | 995.9 |
| 20260904234504 | 58 | 268 | 2.6 | 7.8 | 0.00 | 0.28 | 0.00 | 90 | 995.5 |
| 20260904231504 | 59 | 280 | 3.5 | 7.8 | 0.00 | 0.28 | 0.00 | 91 | 995.5 |
| 20260904230004 | 59 | 281 | 4.3 | 7.0 | 0.00 | 0.28 | 0.00 | 91 | 995.7 |
| 20260904223004 | 59 | 293 | 2.6 | 5.2 | 0.00 | 0.28 | 0.00 | 92 | 995.5 |
| 20260904221505 | 59 | 277 | 1.7 | 5.2 | 0.00 | 0.28 | 0.00 | 93 | 995.1 |
| 20260904220004 | 59 | 279 | 3.5 | 6.1 | 0.00 | 0.28 | 0.00 | 93 | 995.1 |
| 20260904214505 | 59 | 269 | 2.6 | 5.2 | 0.00 | 0.28 | 0.28 | 93 | 995.1 |
| 20260904210004 | 59 | 232 | 0.9 | 4.3 | 0.00 | 0.31 | 0.28 | 93 | 995.0 |
| 20260904204504 | 59 | 259 | 1.7 | 5.2 | 0.00 | 0.35 | 0.28 | 93 | 995.1 |
| 20260904203005 | 59 | 207 | 0.9 | 7.0 | 0.00 | 0.37 | 0.28 | 93 | 995.2 |
| 20260904184504 | 59 | 236 | 1.7 | 5.2 | 0.01 | 0.38 | 0.28 | 93 | 995.6 |
| 20260904181503 | 59 | 220 | 2.6 | 8.7 | 0.00 | 0.62 | 0.27 | 93 | 995.6 |
| 20260904180004 | 59 | 230 | 2.6 | 7.0 | 0.02 | 0.62 | 0.27 | 93 | 995.6 |